#timestamp,LO_Frequency,Hit,StdDev 
1516255215.3,286046999.0,N
1516255235.1,286046996.5,N
1516255255.9,286046999.0,N
1516255275.7,286046998.8,N
1516255295.5,286047000.8,N
1516255315.4,286046999.4,N
1516255335.2,286047000.8,N
1516255355.0,286047001.2,N
1516255355.9,286047001.2,N
1516255375.8,286046998.8,N
1516255395.6,286046998.3,N
1516255415.5,286046996.7,N
1516255435.8,286046997.8,N
1516255455.6,286046997.2,N
1516255475.5,286046999.5,N
1516255525.3,286046996.6,E
1516255535.2,286047000.6,N
1516255555.1,286047001.6,P
1516255556.0,286047001.6,P
1516255575.8,286047002.7,Y
1516255595.7,286046999.4,P
1516255615.5,286046998.6,N
1516255635.4,286046999.5,N
1516255655.2,286046999.4,N
1516255675.0,286046998.5,N
1516255675.9,286046998.5,N
1516255695.8,286046998.4,N
1516255715.6,286047000.9,N
1516255735.4,286047000.7,N
1516255755.3,286047002.7,N
1516255775.1,286047000.1,N
1516255795.9,286047000.2,N
1516255815.7,286046998.6,N
1516255835.5,286046999.3,N
1516255855.4,286046999.0,N
1516255875.2,286046999.4,N
1516255895.1,286046998.8,N
1516255896.0,286046998.8,N
1516255915.8,286046999.4,N
1516255935.6,286046999.1,N
1516255955.5,286046999.4,N
1516255975.3,286046998.8,N
1516255995.1,286046999.2,N
1516256015.9,286046997.7,N
1516256035.7,286046997.2,N
1516256055.6,286046996.8,N
1516256075.4,286046997.1,N
1516256095.2,286046995.0,Y
1516256115.1,286046996.9,P
1516256116.0,286046996.9,N
1516256135.8,286046999.6,N
1516256155.7,286046998.8,N
1516256175.5,286046999.1,N
1516256195.3,286046995.3,Y
1516256215.2,286046998.0,P
1516256235.0,286046997.6,P
1516256235.9,286046997.6,P
1516256255.8,286046998.7,Y
1516256275.6,286046999.7,P
1516256295.4,286047002.5,N
1516256315.3,286047003.9,N
1516256335.1,286047003.5,N
1516256355.9,286047003.5,N
1516256375.7,286047006.0,N
1516256395.5,286047004.8,N
1516256415.4,286047005.4,N
1516256435.2,286047004.1,N
1516256455.0,286047001.3,N
1516256455.9,286047001.3,N
1516256475.8,286047001.4,N
1516256495.6,286047003.6,N
1516256515.5,286047001.4,N
1516256535.3,286047002.5,N
1516256555.1,286047001.6,N
1516256575.9,286047003.9,N
1516256595.7,286047003.7,N
1516256615.6,286047003.3,N
1516256635.4,286047004.2,N
1516256655.2,286047003.2,N
1516256675.1,286047001.4,N
1516256676.0,286047001.4,N
1516256695.8,286047001.3,N
1516256715.7,286047004.0,N
1516256735.5,286047004.1,N
1516256755.3,286047003.8,N
1516256775.2,286047004.7,N
1516256795.9,286047005.7,Y
1516256815.7,286047004.3,P
1516256835.6,286047004.2,P
1516256855.4,286047001.8,N
1516256875.3,286047001.7,N
1516256895.1,286047002.5,N
1516256896.0,286047002.5,N
1516256915.8,286047004.3,Y
1516256935.7,286046998.6,P
1516256955.5,286046998.5,N
1516256975.3,286046996.7,N
1516256995.2,286046998.9,N
1516257015.0,286046997.0,N
1516257015.9,286046997.0,N
1516257035.8,286046998.3,N
1516257055.6,286046999.0,N
1516257075.4,286046999.0,N
1516257095.3,286047001.1,N
1516257115.1,286046998.5,N
1516257135.8,286047000.2,N
1516257155.7,286047000.8,N
1516257175.5,286047000.9,N
1516257195.4,286047000.1,N
1516257215.2,286047002.8,N
1516257235.0,286046999.7,N
1516257235.9,286046999.7,N
1516257255.8,286046998.3,N
1516257275.6,286047001.1,N
1516257295.5,286046999.2,N
1516257315.3,286046999.8,N
1516257335.1,286047000.1,N
1516257355.9,286047000.9,N
1516257375.7,286046998.1,N
1516257395.5,286047002.8,N
1516257415.4,286047002.8,N
1516257435.2,286047001.0,N
1516257485.1,286046999.8,E
1516257495.0,286047001.8,N
1516257495.9,286047001.8,P
1516257515.7,286047003.5,P
1516257535.6,286047003.5,Y
1516257555.4,286047000.9,P
1516257575.3,286046999.9,N
1516257595.1,286047001.2,N
1516257615.9,286046999.0,N
1516257635.7,286046998.1,N
1516257655.5,286046998.5,N
1516257675.4,286046999.2,N
1516257695.2,286047000.8,N
1516257715.0,286046998.4,N
1516257715.9,286046998.4,N
1516257735.8,286046998.9,N
1516257755.6,286046996.9,N
1516257775.5,286046999.1,N
1516257795.3,286046998.4,N
1516257815.1,286046998.1,N
1516257835.9,286047000.3,N
1516257855.7,286047002.7,N
1516257875.6,286047002.1,N
1516257895.4,286047001.9,N
1516257915.2,286047002.3,N
1516257935.1,286046999.8,N
1516257936.0,286046999.8,N
1516257955.8,286047002.3,N
1516257975.6,286047001.1,N
1516257995.5,286047000.4,N
1516258015.3,286047000.2,N
1516258035.2,286047000.4,N
1516258055.9,286047000.1,N
1516258075.7,286047001.1,N
1516258095.6,286047001.5,N
1516258115.4,286047002.1,N
1516258135.3,286047002.0,N
1516258155.1,286047001.7,N
1516258156.0,286047001.7,N
1516258175.8,286047001.5,N
1516258195.7,286046999.8,N
1516258215.5,286046999.7,N
1516258235.4,286047001.4,N
1516258255.2,286047001.7,N
1516258275.0,286047002.7,N
1516258275.9,286047002.7,N
1516258295.8,286047002.4,N
1516258315.6,286046999.9,N
1516258335.4,286047001.6,N
1516258355.3,286047003.8,Y
1516258375.1,286047002.8,P
1516258395.9,286047002.2,N
1516258415.7,286047000.6,N
1516258435.5,286046999.7,N
1516258455.4,286047000.1,N
1516258475.2,286047002.7,N
1516258495.0,286046999.8,N
1516258496.0,286046999.8,N
1516258515.8,286047000.2,N
1516258535.6,286047000.0,N
1516258555.5,286047002.6,N
1516258575.3,286047000.1,N
1516258595.1,286047002.6,N
1516258615.9,286046999.8,N
1516258635.7,286047001.0,N
1516258655.6,286047000.7,N
1516258675.4,286047000.2,N
1516258695.2,286047000.2,N
1516258715.1,286047002.3,N
1516258716.0,286047002.3,N
1516258735.8,286047001.7,N
1516258785.7,286047002.8,E
1516258795.6,286046998.7,N
